Regional Weather Roundup
Issued by NWS State College, PA

Home | Current Version | Previous Version | Graphics & Text | Print | Product List | Glossary On
Versions: 1 2 3 4 5 6 7 8 9 10 11 12 13 14 15 16 17 18 19 20 21 22 23 24 25 26 27 28 29 30 31 32 33 34 35 36 37 38 39 40 41 42 43 44 45 46 47 48 49 50
000
ASUS41 KCTP 302203
RWRCTP

REGIONAL WEATHER ROUNDUP
NATIONAL WEATHER SERVICE STATE COLLEGE PA
600 PM EDT FRI SEP 30 2016

Note: "fair" indicates few or no clouds below 12,000 feet with no
significant weather and/or obstructions to visibility.

* = STATION THAT DOES NOT REPORT PRECIPITATION /E.G. RAIN...SNOW...ETC/
    THUNDER OR FOG.

PAZ002>004-007>009-013>016-020>023-029>032-302300-
WESTERN PENNSYLVANIA

CITY           SKY/WX    TMP DP  RH WIND       PRES   REMARKS
ERIE           CLOUDY    66  56  70 E12       30.14R
MEADVILLE      CLOUDY    60  54  80 E8        30.14S
FRANKLIN*        N/A     57  52  82 E15       30.17R
NEW CASTLE     LGT RAIN  59  57  93 E9        30.13F
BEAVER COUNTY  NOT AVBL
BUTLER*        CLOUDY    57  52  82 E17       30.14F
PITTSBURGH INT CLOUDY    60  59  96 E10       30.09R
PITTSBURGH     LGT RAIN  59  56  89 E10       30.10R FOG
INDIANA*       CLOUDY    57  54  88 SE13G18   30.18R
LATROBE        CLOUDY    59  55  88 E12       30.14R
WASHINGTON CO* CLOUDY    61  55  82 E14       30.08S
$$

PAZ004>006-010>012-017>019-024>028-033>037-041-042-045-046-049>053-302300-
CENTRAL PENNSYLVANIA

CITY           SKY/WX    TMP DP  RH WIND       PRES   REMARKS
BRADFORD       CLOUDY    56  56 100 E12       30.21S FOG
DUBOIS         CLOUDY    56  51  84 E9        30.18R
CLEARFIELD     CLOUDY    55  55 100 NE8       30.21R
JOHNSTOWN      CLOUDY    54  53  97 E9G23     30.14F
ALTOONA        CLOUDY    54  54 100 E5        30.19S FOG
STATE COLLEGE  DRIZZLE   55  54  94 NE7       30.21S
WILLIAMSPORT   CLOUDY    58  56  93 E3        30.23S
SELINSGROVE    LGT RAIN  58  58 100 N6        30.22S FOG
FT INDIANTOWN  CLOUDY    58  55  89 VRB6      30.20S
CAPITAL CITY   CLOUDY    60  55  83 E8        30.20R
HARRISBURG     CLOUDY    59  57  93 E6        30.19R
YORK           CLOUDY    60  58  92 E8        30.18R
$$

PAZ038>040-043-044-047-048-054-055-060>062-067>071-302300-
EASTERN PENNSYLVANIA

CITY           SKY/WX    TMP DP  RH WIND       PRES   REMARKS
SCRANTON       CLOUDY    58  52  80 NE9       30.25R
MOUNT POCONO   LGT RAIN  51  50  96 E20G25    30.26R FOG
ALLENTOWN      LGT RAIN  57  55  94 NE13      30.24R FOG
QUAKERTOWN*    CLOUDY    57  55  94 E6        30.23S
READING        CLOUDY    59  55  87 E13G20    30.20F
LANCASTER      CLOUDY    60  58  92 E13       30.19S
COATESVILLE    CLOUDY    59  57  94 E14G22    30.20R FOG
POTTSTOWN      CLOUDY    58  57  97 NE9       30.23R FOG
BLUE BELL      CLOUDY    57  57 100 E12G18    30.20S
DOYLESTOWN     CLOUDY    59  58  96 VRB7      30.22R FOG
WILLOW GROVE   NOT AVBL
NORTH PHILA    CLOUDY    62  59  90 E14       30.22S FOG
PHILADELPHIA   CLOUDY    62  59  90 NE16G23   30.19S
$$




USA.gov is the U.S. government's official web portal to all federal, state and local government web resources and services.